Regional Weather Roundup
Issued by NWS

Home | Current Version | Previous Version | Text Only | Print | Product List | Glossary Off
Versions: 1 2 3 4 5 6 7 8 9 10 11 12 13 14 15 16 17 18 19 20 21 22 23 24 25 26 27

000
ASUS45 KBOI 300210
RWRID

IDAHO REGIONAL WEATHER ROUNDUP
NATIONAL WEATHER SERVICE BOISE ID
800 PM MDT MON AUG 29 2016

NOTE: "FAIR" INDICATES FEW OR NO CLOUDS BELOW 12000 FEET
WITH NO SIGNIFICANT WEATHER AND/OR OBSTRUCTIONS TO VISIBILITY

IDZ012-014-300300-
SOUTHWEST IDAHO


CITY           SKY/WX    TMP DP  RH WIND       PRES   REMARKS
BOISE          CLOUDY    87  35  15 N5        29.99F
CALDWELL       CLOUDY    84  55  36 W6        29.97F HAZE
MOUNTAIN HOME  MOCLDY    90  38  16 NW14      29.98S
$$

IDZ016-017-300300-
SOUTHCENTRAL IDAHO


CITY           SKY/WX    TMP DP  RH WIND       PRES   REMARKS
BURLEY         PTCLDY    73  54  51 SE3       30.08S
JEROME         PTCLDY    75  49  39 N7        30.08F
TWIN FALLS     MOCLDY    73  53  49 E6        30.09S
$$

IDZ019>023-300300-
SOUTHEAST IDAHO


CITY           SKY/WX    TMP DP  RH WIND       PRES   REMARKS
IDAHO FALLS    CLOUDY    79  34  19 S5        30.17S
POCATELLO      PTCLDY    81  33  17 E5        30.14S
REXBURG        CLOUDY    77  39  25 S3        30.17S
$$

IDZ006-010-011-018-031-032-300300-
CENTRAL IDAHO MOUNTAINS


CITY           SKY/WX    TMP DP  RH WIND       PRES   REMARKS
MCCALL         MOCLDY    75  32  20 SE6       30.18S
HAILEY         MOCLDY    72  39  30 CALM      30.20F
STANLEY          N/A     76  24  14 W3        30.28S
SALMON         PTCLDY    77  39  25 NE5       30.08R
CHALLIS        MOCLDY    77  29  17 NW9       30.15R
$$

IDZ002-004-006-007-026-300300-
NORTHERN IDAHO


CITY           SKY/WX    TMP DP  RH WIND       PRES   REMARKS
LEWISTON       PTCLDY    91  41  17 NW10      29.90R
LOWELL           N/A     76  56  49 CALM      29.87R
COEUR D`ALENE  PTCLDY    86  45  23 CALM      29.90F
MULLAN PASS    PTCLDY    72  39  30 NW6       30.20S
$$




USA.gov is the U.S. government's official web portal to all federal, state and local government web resources and services.